www.pogodaiklimat.ru

АРХИВ ПОГОДЫ в Ростове-на-Дону

Время (UTC), дата Ветер
(напр.,м/с)
 
Видим.   Явления Облачность Т
(С)
Тd
(С)
f
(%)
Тe
(С)
Тes
(С)
Комфортность P
(гПа)
Po
(гПа)
Тmin
(С)
Tmax
(С)
R
(мм)
S
(см)
03 16.10 штиль 0 10 км 10/0
[Ac und]
+13.9 +8.7 71 +14 +14 тепло 1013.0 1004.1 +12.0
06 16.10 З 3 5000 м дымка {ливн. осадки} 9/1 1000 м
[Cb calv Ac trans]
+14.6 +12.3 86 +14 +14 тепло 1013.5 1004.6
09 16.10 ЮЗ 4 4000 м дымка 6/0
[Ac trans]
+18.4 +13.6 74 +19 +21 тепло 1012.4 1003.7
12 16.10 З 3 10 км 10/5 930 м
[Cb calv Ac und]
+19.1 +13.5 70 +20 +21 тепло 1011.1 1002.4
15 16.10 З 2 10 км {ливн. осадки} 8/3 600 м
[Sc Ac trans]
+17.1 +13.5 79 +17 +17 тепло 1010.5 1001.7 +20.4 0.0
18 16.10 ЮЗ 3 4000 м дымка {ливн. осадки} 9/5 900 м
[Sc Ac trans]
+16.0 +13.2 83 +16 +16 тепло 1009.5 1000.7
21 16.10 Ю 4 10 км 9/6 600 м
[Sc Ac trans]
+16.4 +12.8 79 +16 +16 тепло 1007.6 998.8
00 17.10 ЮЗ 7 4000 м слабый ливневой дождь 10/6 240 м
[Cb calv Ac As]
+14.9 +14.2 96 +13 +13 тепло 1006.0 997.2
03 17.10 ЮЗ 5 4000 м слабый ливневой дождь 10/8 120 м
[Cb calv Ac As]
+15.2 +14.7 97 +14 +14 тепло 1004.7 995.9 +14.8 4
06 17.10 З 3 2500 м слабый ливневой дождь 10/8 120 м
[Cb calv Ac und]
+15.3 +14.9 97 +15 +15 тепло 1004.1 995.3
09 17.10 СЗ 4 4000 м дымка {ливн. осадки} 10/6 240 м
[Cb calv Ac und]
+15.3 +13.5 89 +14 +15 тепло 1004.7 995.9
12 17.10 СЗ 3 10 км {ливн. осадки} 9/5 400 м
[Sc Ac trans]
+14.8 +10.7 76 +14 +15 по сезону 1006.2 997.4
15 17.10 З 1 10 км 8/0
[Ac trans Ci fib]
+13.7 +10.2 79 +14 +14 тепло 1007.7 998.8 +16.3 4
18 17.10 штиль 0 6000 м дымка 8/0
[Ac trans]
+9.2 +7.7 90 +8 +8 по сезону 1008.8 999.8
21 17.10 ЮЗ 3 2500 м местами туман поземный 9/3 300 м
[Sc Ac trans]
+10.6 +9.8 95 +8 +8 по сезону 1008.7 999.7
00 18.10 Ю 2 1100 м слабый ливневой дождь 10/8 120 м
[Cb calv Ac und]
+11.6 +10.9 95 +10 +10 тепло 1007.7 998.8
03 18.10 ЮЗ 3 1100 м слабый ливневой дождь {туман} 10/8 90 м
[Cb calv Ac und]
+11.6 +11.2 97 +10 +10 тепло 1006.6 997.7 +8.5 2
06 18.10 штиль 0 900 м слабый ливневой дождь {туман} туман ?/? +12.1 +11.9 99 +11 +11 тепло 1006.5 997.6
09 18.10 С 3 3600 м слабый ливневой дождь {туман} 10/8 210 м
[Cb calv Ac und]
+12.0 +11.0 94 +10 +11 по сезону 1006.4 997.5
12 18.10 СВ 5 10 км в посл. час ливневой дождь {туман} 10/6 750 м
[Sc Ac und]
+11.1 +8.5 84 +8 +9 прохладно 1006.9 998.0
15 18.10 С 8-11
{11}
10 км 9/6 500 м
[Sc Ac trans]
+8.1 +4.8 80 +3 +3 холодно 1008.8 999.7 +13.0 4
18 18.10 С 6-11
{11}
10 км 9/6 1000 м
[Sc Ac trans]
+5.6 +1.8 77 +1 +1 холодно 1011.8 1002.6
21 18.10 С 6-11
{13}
10 км 10/6 800 м
[Sc Ac und]
+3.2 +0.4 82 -2 -2 очень
холодно
1014.4 1005.1
00 19.10 С 5
{11}
10 км 10/6 800 м
[Sc Ac und]
+2.3 -2.2 72 -3 -3 очень
холодно
1016.4 1007.1
03 19.10 С 5 10 км 10/6 800 м
[Sc Ac und]
+2.2 -2.4 72 -3 -3 очень
холодно
1018.8 1009.4 +2.2
06 19.10 С 6 10 км 9/6 660 м
[Sc Ac trans]
+1.9 -2.1 75 -4 -4 очень
холодно
1021.5 1012.1 +1.8
09 19.10 С 5
{10}
10 км 10/8 750 м
[Sc Ac und]
+1.4 -3.1 72 -4 -4 очень
холодно
1023.7 1014.3
12 19.10 С 4
{10}
10 км 10/6 800 м
[Sc Ac und]
+1.8 -3.7 67 -3 -3 очень
холодно
1024.8 1015.4
15 19.10 СЗ 3 10 км 8/3 600 м
[Sc Ac trans]
+1.6 -3.7 68 -2 -2 очень
холодно
1026.0 1016.6 +2.4
18 19.10 З 2 10 км 3/0
[Ac trans]
-0.7 -3.7 80 -4 -4 очень
холодно
1026.8 1017.3
21 19.10 З 2 10 км 4/0
[Ci fib]
-1.3 -3.0 88 -5 -5 очень
холодно
1027.1 1017.5
00 20.10 З 3 7000 м дымка 6/0
[Ci fib]
-2.0 -2.8 94 -7 -7 очень
холодно
1026.2 1016.6
03 20.10 ЮЗ 4 7000 м дымка 9/0
[Ac trans Ci fib]
-0.4 -1.7 91 -6 -6 очень
холодно
1024.9 1015.4 -2.8
06 20.10 ЮЗ 6 10 км 9/0
[Ac trans]
+1.0 -1.2 85 -5 -5 очень
холодно
1023.4 1014.0
09 20.10 ЮЗ 7 10 км 9/5 630 м
[Sc Ac trans]
+5.2 +1.9 79 -0 0 очень
холодно
1021.2 1011.9
12 20.10 ЮЗ 8-12
{12}
10 км 9/6 630 м
[Sc Ac trans]
+7.9 +3.7 75 +3 +3 очень
холодно
1017.6 1008.5
15 20.10 ЮЗ 7-10
{13}
10 км 6/3 600 м
[Sc Ac trans]
+7.4 +4.7 83 +3 +3 холодно 1014.9 1005.8 +8.3
18 20.10 ЮЗ 9-13
{14}
10 км 8/5 700 м
[Sc Ac trans]
+8.6 +5.5 81 +4 +4 прохладно 1013.4 1004.3
21 20.10 ЮЗ 10-13
{13}
10 км 9/6 630 м
[Sc Ac trans]
+9.0 +6.8 86 +4 +4 по сезону 1012.3 1003.2
00 21.10 ЮЗ 7-10
{13}
4000 м слабый дождь {ливн. осадки} 10/6 480 м
[Sc Ac und]
+10.0 +8.5 90 +6 +6 по сезону 1010.9 1001.9
03 21.10 ЮЗ 7-10
{12}
4000 м слабый дождь 10/8 480 м
[Sc Ac und]
+10.6 +9.0 90 +7 +7 по сезону 1009.2 1000.2 +7.2 0.7
06 21.10 ЮЗ 9-12
{14}
3000 м слабая морось {дождь} 10/10 300 м
[St]
+11.4 +9.9 90 +8 +8 по сезону 1009.5 1000.6
09 21.10 ЮЗ 8-12
{14}
4000 м в посл. час морось или зёрна 10/10 240 м
[St]
+11.9 +10.8 93 +8 +8 по сезону 1008.6 999.7
12 21.10 З 8-13
{14}
4000 м дымка {дождь, морось} 10/10 360 м
[Sc]
+13.5 +11.3 87 +7 +7 прохладно 1008.1 999.2
15 21.10 ЮЗ 9-12
{14}
10 км {дождь} 10/8 450 м
[Sc Ac und]
+13.4 +10.8 84 +10 +10 по сезону 1008.2 999.3 +14.1 0.0
18 21.10 ЮЗ 8-11
{14}
10 км слабый ливневой дождь 10/8 400 м
[Cb calv Ac und]
+12.8 +10.7 87 +10 +10 тепло 1008.5 999.6
21 21.10 З 6
{12}
7000 м слабый ливневой дождь 10/8 180 м
[Cb calv Ac und]
+11.9 +11.1 95 +9 +9 тепло 1007.6 998.7
00 22.10 З 4
{12}
10 км слабый ливневой дождь 10/8 150 м
[Cb calv Ac und]
+11.7 +11.0 95 +9 +9 тепло 1006.5 997.6
03 22.10 З 4 4000 м слабый ливневой дождь 10/8 150 м
[Cb calv Ac und]
+11.2 +10.6 96 +9 +9 тепло 1007.2 998.3 +10.9 8
06 22.10 З 3 4500 м дымка {ливн. осадки} 10/10 150 м
[St]
+11.3 +10.7 96 +9 +9 тепло 1009.2 1000.3
09 22.10 З 5 7000 м дымка 10/10 330 м
[Sc]
+12.4 +10.4 88 +10 +10 по сезону 1010.3 1001.4
12 22.10 З 5 10 км 8/4 300 м
[Sc Ci fib]
+13.4 +9.9 79 +11 +12 по сезону 1010.4 1001.5
15 22.10 штиль 0 8000 м дымка 6/0
[Ac trans Ci fib]
+9.9 +8.7 92 +9 +9 по сезону 1011.0 1002.0 +13.9 0.0
18 22.10 З 1 4000 м дымка 9/0
[Ac trans]
+10.7 +10.0 95 +10 +10 тепло 1012.1 1003.1
21 22.10 В 1 2000 м дымка 10/0
[Ac und]
+10.5 +9.7 95 +10 +10 тепло 1012.6 1003.6
00 23.10 СВ 3 2800 м дымка 10/8 300 м
[St Ac und]
+10.7 +10.0 95 +9 +9 тепло 1013.0 1004.0

 

Обсудить погоду в Ростове-на-Дону на МЕТЕОФОРУМЕ

 

Местоположение метеостанции Ростов-на-Дону (Ростовская область, Россия): широта 47.27 долгота 39.82 высота над уровнем моря 75 м.

В архиве по умолчанию представлена погода в Ростове-на-Дону за последнюю неделю. Архивные данные за месяц целиком и за предыдущие месяцы, начиная с января 2011 года, Вы можете получить, выбрав интересующий диапазон дат из раскрывающегося списка и нажав кнопку "Ввод!".

Внимание! Время в таблицах - всемирное. Для получения местного времени необходимо прибавить поправку, которая в Ростове-на-Дону равна 4 ч.

Ветер - указаны скорость ветра в м/с - средняя за 10 мин, порывы в срок и между сроками (в фигурных скобках) и направление, откуда дует ветер: С - северный, СВ - северо-восточный, В - восточный, ЮВ - юго-восточный, Ю - южный, ЮЗ - юго-западный, З - западный, СЗ - северо-западный.
Видимость - горизонтальная дальность видимости в метрах или километрах. При видимости от 1 до 10 км при отсутствии осадков обычно наблюдается дымка, при ухудшении видимости до 1 км и менее - туман. В сухую погоду видимость может ухудшаться дымом, пылью или мглою.
Явления - указаны атсосферные явления, наблюдавшиеся в срок или в последний час перед сроком; фигурными скобками обозначены явления, наблюдавшиеся между сроками (за 1-3 часа до срока); квадратными скобками обозначены град или гололедные отложения с указанием их диаметра в мм.
Облачность - указаны через наклонную черту общая и нижняя облачность в баллах и высота нижней границы облаков в метрах; квадратными скобками обозначены формы облаков: Ci - перистые, Cs - перисто-слоистые, Cc - перисто-кучевые, Ac - высококучевые, As - высокослоистые, Sc - слоисто-кучевые, Ns - слоисто-дождевые, Cu - кучевые, Cb - кучево-дождевые. Подробнее классификацию облаков см. в Атласе облаков (PDF).
T - Температура воздуха - температура, измеренная на высоте 2 м над землей.
Td - Температура точки росы - температура, при понижении до которой содержащийся в воздухе водяной пар достигнет насыщения.
f - Относительная влажность воздуха - влажноcть воздуха, измеренная на высоте 2 м над землей.
Te - Эффективная температура - температура, которую ощущает одетый по сезону человек в тени. Характеристика душности погоды. При расчете учитывается влияние влажности воздуха и скорости ветра на теплоощущения человека.
Tes - Эффективная температура на солнце - температура, которую ощущает человек, с поправкой на солнечный нагрев. Характеристика знойности погоды. Зависит от высоты солнца над горизонтом, облачности и скорости ветра. Ночью, в пасмурную погоду, а также при ветре 12 м/с и более поправка равна нулю.
P - Атмосферное давление - приведенное к уровню моря атмосферное давление.
Po - Атмосферное давление - измеренное на уровне метеостанции атмосферное давление.
Tmin - Минимальная температура - минимум температуры воздуха на высоте 2 м над землей.
Tmax - Максимальная температура - максимум температуры воздуха на высоте 2 м над землей.
R - Количество осадков - Количество выпавших осадков, мм.
S - Снежный покров - Высота снежного покрова, см.